Previsão horária em Centralnoe

Hoje, 25 Julho, Domingo

Tempo Temperatura Precipitação Vento Pressão Humidade
00:00 +24°C° 0 mm 1 m/s 746 mmHg 90%
01:00 +23°C° 0 mm 1 m/s 746 mmHg 89%
02:00 +23°C° 0 mm 1 m/s 746 mmHg 88%
03:00 +23°C° 0 mm 1 m/s 746 mmHg 88%
04:00 +23°C° 0 mm 1 m/s 746 mmHg 87%
05:00 +24°C° 0 mm 1 m/s 746 mmHg 86%
06:00 +24°C° 0 mm 1 m/s 746 mmHg 85%
07:00 +26°C° 0 mm 1 m/s 746 mmHg 76%
08:00 +28°C° 0 mm 1 m/s 746 mmHg 66%
09:00 +31°C° 0 mm 2 m/s 746 mmHg 57%
10:00 +32°C° 0 mm 2 m/s 746 mmHg 55%
11:00 +32°C° 0 mm 2 m/s 746 mmHg 52%
12:00 +34°C° 0 mm 3 m/s 745 mmHg 49%
13:00 +34°C° 0 mm 3 m/s 745 mmHg 48%
14:00 +35°C° 0 mm 3 m/s 745 mmHg 47%
15:00 +35°C° 0 mm 3 m/s 745 mmHg 46%
16:00 +34°C° 0 mm 2 m/s 744 mmHg 53%
17:00 +31°C° 0 mm 2 m/s 744 mmHg 59%
18:00 +30°C° 0 mm 2 m/s 744 mmHg 66%
19:00 +28°C° 0 mm 2 m/s 745 mmHg 76%
20:00 +26°C° 0 mm 1 m/s 745 mmHg 86%
21:00 +24°C° 0 mm 1 m/s 745 mmHg 95%
22:00 +23°C° 0 mm 1 m/s 745 mmHg 96%
23:00 +23°C° 0 mm 1 m/s 745 mmHg 96%

Amanhã, 26 Julho, Segunda-feira

Tempo Temperatura Precipitação Vento Pressão Humidade
00:00 +23°C° 0 mm 1 m/s 745 mmHg 96%
01:00 +23°C° 0 mm 1 m/s 745 mmHg 96%
02:00 +23°C° 0 mm 1 m/s 745 mmHg 96%
03:00 +23°C° 0 mm 1 m/s 744 mmHg 97%
04:00 +23°C° 0 mm 1 m/s 744 mmHg 96%
05:00 +23°C° 0 mm 1 m/s 745 mmHg 95%
06:00 +24°C° 0 mm 1 m/s 745 mmHg 95%
07:00 +26°C° 0 mm 1 m/s 745 mmHg 85%
08:00 +28°C° 0 mm 1 m/s 744 mmHg 76%
09:00 +30°C° 0 mm 2 m/s 744 mmHg 67%
10:00 +31°C° 0 mm 2 m/s 744 mmHg 62%
11:00 +34°C° 0 mm 2 m/s 744 mmHg 57%
12:00 +35°C° 0 mm 2 m/s 744 mmHg 51%
13:00 +35°C° 0 mm 3 m/s 743 mmHg 52%
14:00 +35°C° 0 mm 3 m/s 743 mmHg 52%
15:00 +35°C° 0 mm 3 m/s 743 mmHg 53%
16:00 +33°C° 0 mm 3 m/s 743 mmHg 59%
17:00 +31°C° 0 mm 2 m/s 743 mmHg 66%
18:00 +30°C° 0 mm 2 m/s 743 mmHg 72%
19:00 +28°C° 0 mm 1 m/s 743 mmHg 80%
20:00 +26°C° 0 mm 1 m/s 743 mmHg 89%
21:00 +24°C° 0 mm 1 m/s 744 mmHg 97%
22:00 +24°C° 0 mm 1 m/s 743 mmHg 97%
23:00 +22°C° 0 mm 0 m/s 743 mmHg 97%

Depois de amanhã, 27 Julho, Terça-feira

Tempo Temperatura Precipitação Vento Pressão Humidade
00:00 +22°C° 0 mm 0 m/s 743 mmHg 97%
01:00 +22°C° 0 mm 0 m/s 743 mmHg 97%
02:00 +22°C° 0 mm 0 m/s 743 mmHg 97%
03:00 +21°C° 0 mm 0 m/s 743 mmHg 97%
04:00 +22°C° 0 mm 0 m/s 743 mmHg 96%
05:00 +22°C° 0 mm 0 m/s 743 mmHg 95%
06:00 +22°C° 0 mm 0 m/s 743 mmHg 94%
07:00 +25°C° 0 mm 0 m/s 743 mmHg 84%
08:00 +27°C° 0 mm 0 m/s 743 mmHg 74%
09:00 +29°C° 0 mm 0 m/s 742 mmHg 64%
10:00 +33°C° 0 mm 1 m/s 742 mmHg 59%
11:00 +34°C° 0 mm 1 m/s 742 mmHg 54%
12:00 +36°C° 0 mm 1 m/s 741 mmHg 49%
13:00 +36°C° 0 mm 1 m/s 741 mmHg 48%
14:00 +37°C° 0 mm 2 m/s 740 mmHg 47%
15:00 +37°C° 0 mm 2 m/s 740 mmHg 46%
16:00 +35°C° 0 mm 2 m/s 740 mmHg 54%
17:00 +34°C° 0 mm 2 m/s 740 mmHg 62%
18:00 +31°C° 0 mm 2 m/s 740 mmHg 70%
19:00 +29°C° 0 mm 1 m/s 740 mmHg 77%
20:00 +27°C° 0 mm 1 m/s 740 mmHg 85%
21:00 +23°C° 0 mm 0 m/s 741 mmHg 92%
22:00 +23°C° 0 mm 0 m/s 741 mmHg 93%
23:00 +23°C° 0 mm 0 m/s 741 mmHg 93%

28 Julho, Quarta-feira

Tempo Temperatura Precipitação Vento Pressão Humidade
00:00 +23°C° 0 mm 0 m/s 741 mmHg 94%
01:00 +22°C° 0 mm 0 m/s 741 mmHg 95%
02:00 +22°C° 0 mm 0 m/s 740 mmHg 95%
03:00 +22°C° 0 mm 0 m/s 740 mmHg 96%
04:00 +22°C° 0 mm 0 m/s 741 mmHg 94%
05:00 +23°C° 0 mm 0 m/s 741 mmHg 93%
06:00 +23°C° 0 mm 0 m/s 741 mmHg 91%
07:00 +25°C° 0.1 mm 0 m/s 741 mmHg 83%
08:00 +27°C° 0.1 mm 0 m/s 741 mmHg 74%
09:00 +29°C° 0.1 mm 0 m/s 741 mmHg 66%
10:00 +33°C° 0.1 mm 1 m/s 740 mmHg 61%
11:00 +34°C° 0.1 mm 1 m/s 740 mmHg 57%
12:00 +35°C° 0.1 mm 1 m/s 739 mmHg 53%
13:00 +35°C° 0.2 mm 2 m/s 739 mmHg 59%
14:00 +32°C° 0.2 mm 2 m/s 739 mmHg 65%
15:00 +31°C° 0.2 mm 2 m/s 739 mmHg 71%
16:00 +30°C° 0.7 mm 2 m/s 739 mmHg 78%
17:00 +28°C° 0.7 mm 1 m/s 739 mmHg 85%
18:00 +27°C° 0.7 mm 1 m/s 739 mmHg 92%
19:00 +26°C° 0.6 mm 1 m/s 739 mmHg 94%
20:00 +25°C° 0.6 mm 1 m/s 740 mmHg 96%
21:00 +24°C° 0.6 mm 1 m/s 740 mmHg 98%
22:00 +24°C° 0 mm 1 m/s 740 mmHg 98%
23:00 +24°C° 0 mm 1 m/s 740 mmHg 97%

29 Julho, Quinta-feira

Tempo Temperatura Precipitação Vento Pressão Humidade
00:00 +21°C° 0 mm 0 m/s 740 mmHg 97%
01:00 +21°C° 0 mm 0 m/s 740 mmHg 96%
02:00 +21°C° 0 mm 0 m/s 739 mmHg 96%
03:00 +21°C° 0 mm 0 m/s 739 mmHg 96%
04:00 +21°C° 0 mm 0 m/s 739 mmHg 95%
05:00 +21°C° 0 mm 0 m/s 739 mmHg 95%
06:00 +21°C° 0 mm 0 m/s 739 mmHg 94%
07:00 +25°C° 0 mm 1 m/s 739 mmHg 85%
08:00 +27°C° 0 mm 1 m/s 739 mmHg 76%
09:00 +29°C° 0 mm 1 m/s 739 mmHg 67%
10:00 +30°C° 0 mm 1 m/s 739 mmHg 64%
11:00 +32°C° 0 mm 2 m/s 739 mmHg 60%
12:00 +34°C° 0 mm 2 m/s 738 mmHg 56%
13:00 +34°C° 0.1 mm 2 m/s 738 mmHg 57%
14:00 +34°C° 0.1 mm 2 m/s 738 mmHg 57%
15:00 +34°C° 0.1 mm 2 m/s 738 mmHg 57%
16:00 +31°C° 0.3 mm 2 m/s 738 mmHg 67%
17:00 +29°C° 0.3 mm 2 m/s 738 mmHg 77%
18:00 +27°C° 0.3 mm 1 m/s 738 mmHg 87%
19:00 +26°C° 0.1 mm 1 m/s 738 mmHg 90%
20:00 +25°C° 0.1 mm 1 m/s 739 mmHg 94%
21:00 +23°C° 0.1 mm 1 m/s 739 mmHg 97%
22:00 +23°C° 0 mm 1 m/s 739 mmHg 96%
23:00 +23°C° 0 mm 1 m/s 739 mmHg 96%

30 Julho, Sexta-feira

Tempo Temperatura Precipitação Vento Pressão Humidade
00:00 +23°C° 0 mm 1 m/s 738 mmHg 96%
01:00 +21°C° 0 mm 0 m/s 738 mmHg 96%
02:00 +21°C° 0 mm 0 m/s 738 mmHg 95%
03:00 +21°C° 0 mm 0 m/s 738 mmHg 95%
04:00 +21°C° 0 mm 0 m/s 738 mmHg 94%
05:00 +21°C° 0 mm 0 m/s 738 mmHg 94%
06:00 +21°C° 0 mm 0 m/s 738 mmHg 93%
07:00 +25°C° 0 mm 1 m/s 738 mmHg 86%
08:00 +27°C° 0 mm 1 m/s 738 mmHg 78%
09:00 +29°C° 0 mm 1 m/s 738 mmHg 70%
10:00 +30°C° 0 mm 1 m/s 738 mmHg 64%
11:00 +32°C° 0 mm 1 m/s 738 mmHg 59%
12:00 +34°C° 0 mm 2 m/s 737 mmHg 53%
13:00 +34°C° 0 mm 2 m/s 737 mmHg 53%
14:00 +34°C° 0 mm 2 m/s 737 mmHg 54%
15:00 +34°C° 0 mm 2 m/s 737 mmHg 54%
16:00 +32°C° 0 mm 2 m/s 737 mmHg 60%
17:00 +30°C° 0 mm 2 m/s 737 mmHg 67%
18:00 +29°C° 0 mm 2 m/s 738 mmHg 73%
19:00 +27°C° 0 mm 2 m/s 738 mmHg 81%
20:00 +26°C° 0 mm 1 m/s 738 mmHg 88%
21:00 +24°C° 0 mm 1 m/s 738 mmHg 95%
22:00 +24°C° 0 mm 1 m/s 738 mmHg 95%
23:00 +24°C° 0 mm 1 m/s 738 mmHg 94%
Mostrar mais

Necessitamos do seu Consentimento

A Meteoprog e os seus Fornecedores de Serviços podem armazenar e aceder a dados pessoais como cookies, identificadores do dispositivo ou outras tecnologias semelhantes existentes no seu dispositivo e processar estes dados para personalizar conteúdos e anúncios, assim como funcionalidades nas redes sociais e análise de tráfego.

  • Armazenar e/ou aceder a informações no seu dispositivo

    Os cookies, identificadores do dispositivo ou outras informações podem ser armazenados ou acedidos no seu dispositivo, para os fins acima indicados.

  • Anúncios e conteúdos personalizados, medição de anúncios e conteúdos, dados sobre o público-alvo e desenvolvimento de produtos

    Os anúncios e os conteúdos podem ser personalizados com base num perfil. Podem ser adicionados dados adicionais para uma maior personalização dos anúncios e dos conteúdos. A eficácia dos anúncios e dos conteúdos pode ser medida. Podem ser obtidas informações sobre o público que visualizou os anúncios e os conteúdos. Estes dados podem ser usados para desenvolver ou melhorar sistemas, softwares ou a experiência do utilizador.

Ao clicar em "Eu concordo”, permitirá o uso de cookies, identificadores do dispositivo e web beacons mencionados ou outras tecnologias semelhantes. As configurações do navegador do seu dispositivo podem ser alteradas.

Para certos fins, podem ser invocados interesses legítimos ao invés de consentimento. Pode ler mais informação sobre este assunto na nossa Política de Privacidade e Cookies.